Tracking 28238 objects as of 28-Nov-2023
HD Live streaming from Space Station
objects crossing your sky now

STARLINK-3661

Track STARLINK-3661 now!
10-day predictions
STARLINK-3661 is classified as:


NORAD ID: 52129
Int'l Code: 2022-029AT
Perigee: 546.0 km
Apogee: 547.7 km
Inclination: 53.2 °
Period: 95.4 minutes
Semi major axis: 6917 km
RCS: Unknown
Launch date: March 19, 2022
Source: United States (US)
Launch site: AIR FORCE EASTERN TEST RANGE (AFETR)
Your satellite tracking list
Your tracking list is empty




NASA's NSSDC Master Catalog

Two Line Element Set (TLE):
1 52129U 22029AT  23332.04111402  .00006682  00000-0  43728-3 0  9999
2 52129  53.2161 207.0267 0001242  90.6894 269.4241 15.08861721 95234
Source of the keplerian elements: AFSPC